AZU9057 SBCF-SBIL

Flight info

Callsign AZU9057
Flight time 1h 5m
Altitude 37000
Route KADOR UZ14 DALOX
Aircraft A20N/M-SDE2E3FGHIRWXY/LB1

Departure

Time 2026-04-21 23:04
Airport Tancredo Neves International Airport (SBCF)

Arrival

Time 2026-04-22 00:09
Airport Bahia - Jorge Amado Airport (SBIL)
Time Latitude Longitude Altitude Speed Heading
2026-04-21 22:48 -19.63284 -43.96427 2814 ft 0 kts 56°
2026-04-21 22:51 -19.63292 -43.96439 2819 ft 2 kts 53°
2026-04-21 22:52 -19.63302 -43.96453 2819 ft 2 kts 49°
2026-04-21 22:52 -19.63313 -43.96465 2818 ft 2 kts 41°
2026-04-21 22:52 -19.63327 -43.96475 2818 ft 2 kts 19°
2026-04-21 22:52 -19.63343 -43.96476 2816 ft 2 kts 336°
2026-04-21 22:53 -19.63352 -43.96470 2819 ft 1 kts 323°
2026-04-21 22:55 -19.63348 -43.96474 2817 ft 2 kts 317°
2026-04-21 22:55 -19.63327 -43.96495 2816 ft 6 kts 317°
2026-04-21 22:55 -19.63293 -43.96522 2816 ft 7 kts 322°
2026-04-21 22:55 -19.63243 -43.96564 2816 ft 10 kts 322°
2026-04-21 22:56 -19.63203 -43.96617 2814 ft 9 kts 268°
2026-04-21 22:56 -19.63236 -43.96670 2816 ft 9 kts 229°
2026-04-21 22:56 -19.63264 -43.96725 2814 ft 9 kts 269°
2026-04-21 22:56 -19.63222 -43.96782 2816 ft 11 kts 318°
2026-04-21 22:57 -19.63177 -43.96825 2818 ft 11 kts 318°
2026-04-21 22:58 -19.63138 -43.96862 2814 ft 12 kts 318°
2026-04-21 22:58 -19.63073 -43.96921 2816 ft 13 kts 321°
2026-04-21 22:59 -19.63004 -43.96984 2818 ft 13 kts 318°
2026-04-21 22:59 -19.62933 -43.97049 2817 ft 14 kts 320°
2026-04-21 22:59 -19.62861 -43.97116 2815 ft 14 kts 319°
2026-04-21 22:59 -19.62792 -43.97180 2814 ft 13 kts 319°
2026-04-21 23:00 -19.62727 -43.97240 2817 ft 12 kts 319°
2026-04-21 23:00 -19.62668 -43.97296 2814 ft 11 kts 319°
2026-04-21 23:00 -19.62612 -43.97347 2814 ft 10 kts 319°
2026-04-21 23:00 -19.62561 -43.97394 2814 ft 9 kts 319°
2026-04-21 23:01 -19.62513 -43.97439 2818 ft 9 kts 319°
2026-04-21 23:01 -19.62468 -43.97481 2816 ft 9 kts 319°
2026-04-21 23:01 -19.62418 -43.97528 2814 ft 10 kts 319°
2026-04-21 23:01 -19.62361 -43.97580 2818 ft 11 kts 319°
2026-04-21 23:02 -19.62298 -43.97638 2818 ft 12 kts 319°
2026-04-21 23:02 -19.62240 -43.97697 2818 ft 10 kts 300°
2026-04-21 23:02 -19.62254 -43.97759 2817 ft 8 kts 228°
2026-04-21 23:02 -19.62288 -43.97781 2816 ft 7 kts 194°
2026-04-21 23:03 -19.62345 -43.97783 2818 ft 10 kts 179°
2026-04-21 23:03 -19.62401 -43.97767 2813 ft 6 kts 138°
2026-04-21 23:03 -19.62503 -43.97673 2813 ft 46 kts 139°
2026-04-21 23:03 -19.62895 -43.97311 2817 ft 102 kts 139°
2026-04-21 23:04 -19.63565 -43.96690 2817 ft 151 kts 139°
2026-04-21 23:04 -19.64441 -43.95891 2955 ft 172 kts 140°
2026-04-21 23:04 -19.65343 -43.95065 3498 ft 170 kts 139°
2026-04-21 23:04 -19.66217 -43.94229 3968 ft 168 kts 130°
2026-04-21 23:05 -19.66598 -43.93090 4453 ft 173 kts 83°
2026-04-21 23:05 -19.66026 -43.91979 4963 ft 182 kts 42°
2026-04-21 23:05 -19.64923 -43.91193 5298 ft 200 kts 26°
2026-04-21 23:05 -19.63677 -43.90406 5599 ft 219 kts 42°
2026-04-21 23:06 -19.62555 -43.89169 5801 ft 248 kts 50°
2026-04-21 23:06 -19.61467 -43.87634 6158 ft 270 kts 56°
2026-04-21 23:06 -19.60423 -43.85932 6733 ft 280 kts 58°
2026-04-21 23:06 -19.59391 -43.84162 7426 ft 285 kts 58°
2026-04-21 23:07 -19.58341 -43.82357 8184 ft 289 kts 58°
2026-04-21 23:07 -19.57265 -43.80545 8958 ft 293 kts 58°
2026-04-21 23:07 -19.56154 -43.78713 9730 ft 297 kts 57°
2026-04-21 23:07 -19.55016 -43.76869 10405 ft 304 kts 57°
2026-04-21 23:08 -19.53811 -43.74935 10749 ft 324 kts 57°
2026-04-21 23:08 -19.52533 -43.72896 11099 ft 340 kts 57°
2026-04-21 23:08 -19.51207 -43.70784 11653 ft 347 kts 57°
2026-04-21 23:08 -19.49862 -43.68644 12303 ft 351 kts 57°
2026-04-21 23:09 -19.48501 -43.66479 12988 ft 355 kts 57°
2026-04-21 23:09 -19.47125 -43.64288 13683 ft 359 kts 57°
2026-04-21 23:09 -19.45736 -43.62076 14311 ft 363 kts 57°
2026-04-21 23:09 -19.44329 -43.59834 14914 ft 367 kts 58°
2026-04-21 23:10 -19.42905 -43.57566 15492 ft 372 kts 58°
2026-04-21 23:10 -19.41465 -43.55272 16090 ft 375 kts 58°
2026-04-21 23:10 -19.40012 -43.52960 16687 ft 379 kts 58°
2026-04-21 23:10 -19.38542 -43.50620 17244 ft 384 kts 58°
2026-04-21 23:11 -19.37054 -43.48254 17771 ft 388 kts 58°
2026-04-21 23:11 -19.35547 -43.45858 18305 ft 392 kts 58°
2026-04-21 23:11 -19.34030 -43.43448 18754 ft 395 kts 58°
2026-04-21 23:11 -19.32498 -43.41014 19223 ft 398 kts 58°
2026-04-21 23:12 -19.30955 -43.38565 19707 ft 401 kts 58°
2026-04-21 23:12 -19.29400 -43.36098 20191 ft 404 kts 58°
2026-04-21 23:12 -19.27832 -43.33612 20686 ft 407 kts 58°
2026-04-21 23:12 -19.26255 -43.31111 21189 ft 410 kts 58°
2026-04-21 23:13 -19.24664 -43.28589 21712 ft 413 kts 58°
2026-04-21 23:13 -19.23065 -43.26056 22244 ft 416 kts 58°
2026-04-21 23:13 -19.21450 -43.23499 22753 ft 419 kts 57°
2026-04-21 23:13 -19.19846 -43.20959 23253 ft 422 kts 57°
2026-04-21 23:14 -19.18207 -43.18366 23744 ft 425 kts 57°
2026-04-21 23:14 -19.16534 -43.15720 24158 ft 429 kts 57°
2026-04-21 23:14 -19.14894 -43.13126 24538 ft 432 kts 57°
2026-04-21 23:14 -19.13220 -43.10481 24956 ft 435 kts 57°
2026-04-21 23:15 -19.11532 -43.07815 25330 ft 437 kts 57°
2026-04-21 23:15 -19.09836 -43.05136 25713 ft 440 kts 57°
2026-04-21 23:15 -19.08126 -43.02437 26103 ft 443 kts 57°
2026-04-21 23:15 -19.06408 -42.99727 26466 ft 446 kts 57°
2026-04-21 23:16 -19.04677 -42.96997 26835 ft 448 kts 57°
2026-04-21 23:16 -19.02936 -42.94253 27210 ft 451 kts 57°
2026-04-21 23:16 -19.01183 -42.91492 27564 ft 453 kts 57°
2026-04-21 23:16 -18.99422 -42.88718 27916 ft 456 kts 57°
2026-04-21 23:17 -18.98226 -42.86835 28151 ft 458 kts 57°
2026-04-21 23:17 -18.96447 -42.84036 28503 ft 460 kts 57°
2026-04-21 23:17 -18.94658 -42.81221 28829 ft 463 kts 57°
2026-04-21 23:17 -18.92797 -42.78433 29124 ft 467 kts 50°
2026-04-21 23:18 -18.90488 -42.76014 29455 ft 470 kts 41°
2026-04-21 23:18 -18.87977 -42.73864 29771 ft 472 kts 38°
2026-04-21 23:18 -18.85284 -42.71778 30084 ft 475 kts 36°
2026-04-21 23:18 -18.82582 -42.69751 30352 ft 478 kts 36°
2026-04-21 23:19 -18.79904 -42.67733 30572 ft 481 kts 36°
2026-04-21 23:19 -18.77155 -42.65626 30842 ft 483 kts 37°
2026-04-21 23:19 -18.74455 -42.63519 31161 ft 483 kts 37°
2026-04-21 23:19 -18.71797 -42.61419 31481 ft 484 kts 37°
2026-04-21 23:20 -18.69111 -42.59280 31797 ft 484 kts 37°
2026-04-21 23:20 -18.66427 -42.57135 32102 ft 485 kts 37°
2026-04-21 23:20 -18.63741 -42.54985 32395 ft 486 kts 37°
2026-04-21 23:20 -18.61049 -42.52832 32682 ft 486 kts 37°
2026-04-21 23:21 -18.58352 -42.50677 32988 ft 487 kts 37°
2026-04-21 23:21 -18.55648 -42.48518 33288 ft 487 kts 37°
2026-04-21 23:21 -18.52946 -42.46363 33581 ft 488 kts 37°
2026-04-21 23:21 -18.50239 -42.44207 33865 ft 488 kts 37°
2026-04-21 23:22 -18.47528 -42.42048 34124 ft 489 kts 37°
2026-04-21 23:22 -18.44808 -42.39883 34356 ft 490 kts 37°
2026-04-21 23:22 -18.42093 -42.37723 34641 ft 489 kts 37°
2026-04-21 23:22 -18.39379 -42.35564 34894 ft 489 kts 37°
2026-04-21 23:23 -18.36664 -42.33406 35145 ft 489 kts 37°
2026-04-21 23:23 -18.33949 -42.31248 35396 ft 488 kts 37°
2026-04-21 23:23 -18.31241 -42.29096 35643 ft 488 kts 37°
2026-04-21 23:23 -18.28528 -42.26942 35855 ft 488 kts 37°
2026-04-21 23:24 -18.25813 -42.24788 36067 ft 489 kts 37°
2026-04-21 23:24 -18.23100 -42.22636 36301 ft 489 kts 37°
2026-04-21 23:24 -18.20383 -42.20482 36526 ft 489 kts 37°
2026-04-21 23:24 -18.17672 -42.18333 36713 ft 489 kts 37°
2026-04-21 23:25 -18.14956 -42.16181 36956 ft 488 kts 37°
2026-04-21 23:25 -18.12239 -42.14029 37063 ft 489 kts 37°
2026-04-21 23:25 -18.06811 -42.09733 37061 ft 488 kts 37°
2026-04-21 23:26 -18.01390 -42.05446 37068 ft 488 kts 37°
2026-04-21 23:26 -17.95968 -42.01160 37075 ft 488 kts 37°
2026-04-21 23:27 -17.90549 -41.96882 37083 ft 487 kts 37°
2026-04-21 23:27 -17.85140 -41.92613 37071 ft 486 kts 37°
2026-04-21 23:28 -17.79732 -41.88349 37087 ft 486 kts 37°
2026-04-21 23:28 -17.74323 -41.84089 37088 ft 486 kts 37°
2026-04-21 23:29 -17.68920 -41.79836 37088 ft 486 kts 37°
2026-04-21 23:29 -17.63546 -41.75609 37090 ft 485 kts 36°
2026-04-21 23:30 -17.58143 -41.71363 37094 ft 485 kts 36°
2026-04-21 23:30 -17.52742 -41.67121 37091 ft 485 kts 36°
2026-04-21 23:31 -17.47342 -41.62882 37095 ft 485 kts 37°
2026-04-21 23:31 -17.41945 -41.58649 37083 ft 484 kts 36°
2026-04-21 23:32 -17.36551 -41.54423 37096 ft 484 kts 36°
2026-04-21 23:32 -17.31162 -41.50202 37089 ft 484 kts 37°
2026-04-21 23:33 -17.25774 -41.45984 37094 ft 483 kts 36°
2026-04-21 23:33 -17.20388 -41.41773 37086 ft 483 kts 36°
2026-04-21 23:34 -17.15007 -41.37567 37094 ft 483 kts 36°
2026-04-21 23:34 -17.09626 -41.33365 37095 ft 483 kts 36°
2026-04-21 23:35 -17.04246 -41.29167 37092 ft 482 kts 36°
2026-04-21 23:35 -16.98877 -41.24980 37092 ft 482 kts 36°
2026-04-21 23:36 -16.93501 -41.20792 37089 ft 482 kts 36°
2026-04-21 23:36 -16.88127 -41.16607 37088 ft 482 kts 36°
2026-04-21 23:37 -16.82749 -41.12423 37089 ft 482 kts 36°
2026-04-21 23:37 -16.77374 -41.08244 36994 ft 482 kts 38°
2026-04-21 23:38 -16.72032 -41.04095 37085 ft 476 kts 38°
2026-04-21 23:38 -16.66731 -40.99979 37091 ft 474 kts 38°
2026-04-21 23:39 -16.61476 -40.95901 37087 ft 474 kts 38°
2026-04-21 23:39 -16.56182 -40.91797 37093 ft 474 kts 38°
2026-04-21 23:40 -16.50894 -40.87700 37094 ft 474 kts 38°
2026-04-21 23:40 -16.45606 -40.83606 37094 ft 473 kts 38°
2026-04-21 23:41 -16.40321 -40.79518 37091 ft 473 kts 38°
2026-04-21 23:41 -16.35038 -40.75433 37088 ft 473 kts 38°
2026-04-21 23:42 -16.29756 -40.71352 37087 ft 472 kts 38°
2026-04-21 23:42 -16.24485 -40.67282 37085 ft 471 kts 38°
2026-04-21 23:43 -16.19225 -40.63225 37091 ft 470 kts 38°
2026-04-21 23:43 -16.13972 -40.59174 37090 ft 470 kts 38°
2026-04-21 23:44 -16.08717 -40.55125 37087 ft 470 kts 38°
2026-04-21 23:44 -16.03468 -40.51084 37086 ft 469 kts 38°
2026-04-21 23:45 -15.95607 -40.45037 37084 ft 468 kts 38°
2026-04-21 23:46 -15.90382 -40.41025 37091 ft 467 kts 38°
2026-04-21 23:46 -15.85156 -40.37015 36865 ft 466 kts 38°
2026-04-21 23:46 -15.82549 -40.35016 36354 ft 467 kts 38°
2026-04-21 23:47 -15.79926 -40.33005 35619 ft 471 kts 38°
2026-04-21 23:47 -15.77276 -40.30974 34909 ft 475 kts 38°
2026-04-21 23:47 -15.74605 -40.28927 34200 ft 479 kts 38°
2026-04-21 23:47 -15.71909 -40.26861 33368 ft 484 kts 38°
2026-04-21 23:48 -15.69189 -40.24779 32689 ft 486 kts 39°
2026-04-21 23:48 -15.66513 -40.22732 32170 ft 482 kts 38°
2026-04-21 23:48 -15.63819 -40.20673 31626 ft 480 kts 39°
2026-04-21 23:48 -15.61136 -40.18618 31076 ft 478 kts 40°
2026-04-21 23:49 -15.58764 -40.16249 30494 ft 471 kts 55°
2026-04-21 23:49 -15.56989 -40.13423 29907 ft 466 kts 63°
2026-04-21 23:49 -15.55400 -40.10501 29299 ft 464 kts 64°
2026-04-21 23:49 -15.53866 -40.07588 28824 ft 458 kts 64°
2026-04-21 23:50 -15.52354 -40.04698 28341 ft 454 kts 64°
2026-04-21 23:50 -15.50861 -40.01840 27828 ft 450 kts 64°
2026-04-21 23:50 -15.49381 -39.99008 27458 ft 443 kts 64°
2026-04-21 23:50 -15.47917 -39.96208 26960 ft 440 kts 64°
2026-04-21 23:51 -15.46469 -39.93438 26429 ft 433 kts 64°
2026-04-21 23:51 -15.45041 -39.90708 25721 ft 428 kts 64°
2026-04-21 23:51 -15.43632 -39.88016 25039 ft 423 kts 64°
2026-04-21 23:51 -15.42243 -39.85363 24431 ft 415 kts 64°
2026-04-21 23:52 -15.40878 -39.82756 23882 ft 407 kts 64°
2026-04-21 23:52 -15.39542 -39.80206 23306 ft 398 kts 64°
2026-04-21 23:52 -15.38238 -39.77717 22765 ft 388 kts 64°
2026-04-21 23:52 -15.36966 -39.75291 22272 ft 378 kts 64°
2026-04-21 23:53 -15.35726 -39.72925 21796 ft 369 kts 64°
2026-04-21 23:53 -15.34512 -39.70612 21314 ft 362 kts 64°
2026-04-21 23:53 -15.33323 -39.68344 20856 ft 355 kts 64°
2026-04-21 23:53 -15.32154 -39.66116 20392 ft 349 kts 64°
2026-04-21 23:54 -15.31005 -39.63924 19950 ft 344 kts 63°
2026-04-21 23:54 -15.29866 -39.61753 19491 ft 343 kts 62°
2026-04-21 23:54 -15.28725 -39.59578 19036 ft 344 kts 62°
2026-04-21 23:54 -15.27582 -39.57403 18585 ft 343 kts 60°
2026-04-21 23:55 -15.26440 -39.55229 18096 ft 343 kts 60°
2026-04-21 23:55 -15.25316 -39.53091 17621 ft 341 kts 60°
2026-04-21 23:55 -15.24177 -39.50926 17163 ft 336 kts 60°
2026-04-21 23:55 -15.23075 -39.48831 16723 ft 336 kts 60°
2026-04-21 23:56 -15.21941 -39.46678 16263 ft 337 kts 61°
2026-04-21 23:56 -15.20832 -39.44572 15809 ft 339 kts 60°
2026-04-21 23:56 -15.19704 -39.42429 15352 ft 340 kts 61°
2026-04-21 23:56 -15.18570 -39.40277 14896 ft 341 kts 61°
2026-04-21 23:57 -15.17434 -39.38120 14425 ft 341 kts 61°
2026-04-21 23:57 -15.16301 -39.35971 13974 ft 340 kts 61°
2026-04-21 23:57 -15.15172 -39.33829 13477 ft 339 kts 61°
2026-04-21 23:57 -15.14033 -39.31669 13005 ft 336 kts 61°
2026-04-21 23:58 -15.12933 -39.29583 12555 ft 333 kts 62°
2026-04-21 23:58 -15.11828 -39.27490 12106 ft 330 kts 62°
2026-04-21 23:58 -15.10733 -39.25415 11663 ft 327 kts 62°
2026-04-21 23:58 -15.09648 -39.23359 11222 ft 325 kts 62°
2026-04-21 23:59 -15.08575 -39.21327 10938 ft 316 kts 62°
2026-04-21 23:59 -15.07542 -39.19373 10827 ft 303 kts 62°
2026-04-21 23:59 -15.06547 -39.17489 10555 ft 296 kts 62°
2026-04-21 23:59 -15.05556 -39.15614 10162 ft 296 kts 63°
2026-04-22 00:00 -15.04573 -39.13753 9791 ft 293 kts 62°
2026-04-22 00:00 -15.03598 -39.11909 9349 ft 291 kts 63°
2026-04-22 00:00 -15.02636 -39.10091 8945 ft 288 kts 64°
2026-04-22 00:00 -15.01676 -39.08273 8510 ft 287 kts 63°
2026-04-22 00:01 -15.00721 -39.06469 8133 ft 285 kts 64°
2026-04-22 00:01 -14.99775 -39.04683 7733 ft 283 kts 64°
2026-04-22 00:01 -14.98834 -39.02904 7340 ft 281 kts 63°
2026-04-22 00:01 -14.97901 -39.01142 6978 ft 278 kts 64°
2026-04-22 00:02 -14.96974 -38.99393 6623 ft 276 kts 64°
2026-04-22 00:02 -14.96057 -38.97662 6280 ft 272 kts 64°
2026-04-22 00:02 -14.95167 -38.95984 6101 ft 259 kts 64°
2026-04-22 00:02 -14.94324 -38.94398 5884 ft 246 kts 65°
2026-04-22 00:03 -14.93509 -38.92859 5513 ft 242 kts 64°
2026-04-22 00:03 -14.92711 -38.91353 5217 ft 236 kts 65°
2026-04-22 00:03 -14.91925 -38.89868 4751 ft 236 kts 65°
2026-04-22 00:03 -14.91403 -38.88883 4462 ft 236 kts 65°
2026-04-22 00:04 -14.90605 -38.87434 4212 ft 227 kts 61°
2026-04-22 00:04 -14.89584 -38.86242 3976 ft 219 kts 42°
2026-04-22 00:04 -14.88250 -38.85510 3698 ft 219 kts 21°
2026-04-22 00:04 -14.86736 -38.85301 3374 ft 218 kts
2026-04-22 00:05 -14.84775 -38.85365 3017 ft 211 kts 356°
2026-04-22 00:05 -14.83798 -38.85579 2772 ft 213 kts 342°
2026-04-22 00:05 -14.82530 -38.86306 2553 ft 206 kts 318°
2026-04-22 00:05 -14.81649 -38.87423 2301 ft 197 kts 294°
2026-04-22 00:06 -14.81248 -38.88737 2083 ft 187 kts 272°
2026-04-22 00:06 -14.81198 -38.90056 1836 ft 183 kts 263°
2026-04-22 00:06 -14.81235 -38.91346 1660 ft 173 kts 262°
2026-04-22 00:06 -14.81281 -38.92585 1673 ft 170 kts 263°
2026-04-22 00:07 -14.81319 -38.93755 1685 ft 159 kts 262°
2026-04-22 00:07 -14.81358 -38.94897 1601 ft 159 kts 263°
2026-04-22 00:07 -14.81398 -38.96031 1356 ft 156 kts 263°
2026-04-22 00:07 -14.81425 -38.97123 1074 ft 153 kts 264°
2026-04-22 00:08 -14.81412 -38.98227 810 ft 154 kts 267°
2026-04-22 00:08 -14.81417 -38.99313 626 ft 149 kts 261°
2026-04-22 00:08 -14.81486 -39.00359 399 ft 143 kts 260°
2026-04-22 00:08 -14.81538 -39.01389 210 ft 143 kts 266°
2026-04-22 00:09 -14.81557 -39.02410 65 ft 142 kts 262°
2026-04-22 00:09 -14.81599 -39.03373 18 ft 114 kts 270°
2026-04-22 00:09 -14.81606 -39.03825 22 ft 23 kts 268°
2026-04-22 00:09 -14.81535 -39.01205 241 ft 143 kts 265°
2026-04-22 00:10 -14.81550 -39.02232 87 ft 142 kts 261°
2026-04-22 00:10 -14.81596 -39.03221 16 ft 126 kts 266°
2026-04-22 00:10 -14.81605 -39.03789 22 ft 30 kts 268°
2026-04-22 00:10 -14.81525 -39.00908 295 ft 144 kts 263°
2026-04-22 00:11 -14.81542 -39.01937 127 ft 142 kts 263°
2026-04-22 00:11 -14.81580 -39.02950 20 ft 137 kts 263°
2026-04-22 00:11 -14.81602 -39.03701 22 ft 56 kts 268°
2026-04-22 00:11 -14.81531 -39.01053 267 ft 144 kts 265°
2026-04-22 00:12 -14.81545 -39.02078 105 ft 142 kts 262°
2026-04-22 00:12 -14.81587 -39.03082 18 ft 132 kts 266°
2026-04-22 00:12 -14.81604 -39.03750 22 ft 43 kts 268°
2026-04-22 00:12 -14.81609 -39.03924 27 ft 20 kts 268°
2026-04-22 00:13 -14.81627 -39.04002 26 ft 8 kts 253°
2026-04-22 00:13 -14.81606 -39.04009 24 ft 6 kts 96°
2026-04-22 00:13 -14.81607 -39.03951 26 ft 10 kts 90°
2026-04-22 00:13 -14.81607 -39.03860 23 ft 15 kts 90°
2026-04-22 00:14 -14.81606 -39.03741 22 ft 17 kts 88°
2026-04-22 00:14 -14.81602 -39.03618 21 ft 17 kts 86°
2026-04-22 00:14 -14.81598 -39.03493 21 ft 18 kts 88°
2026-04-22 00:14 -14.81595 -39.03361 18 ft 19 kts 89°
2026-04-22 00:15 -14.81569 -39.03250 17 ft 14 kts 32°
2026-04-22 00:15 -14.81509 -39.03245 18 ft 6 kts 11°
2026-04-22 00:15 -14.81484 -39.03222 19 ft 4 kts 74°
2026-04-22 00:15 -14.81468 -39.03204 19 ft 2 kts 15°
2026-04-22 00:16 -14.81455 -39.03207 19 ft 1 kts 336°
2026-04-22 00:16 -14.81449 -39.03214 22 ft 2 kts 297°
2026-04-22 00:16 -14.81446 -39.03223 21 ft 0 kts 290°